This demonstration page uses our WeatherBlox Daily Observations layout. Learn more.

Left ArrowRight Arrow

Hourly Observations for February 3, 2019

Temp ( °F °C ) Dew Point ( °F °C ) Humidity (%) Winds ( mph kmh ) Pressure ( in mb ) Visibility ( mi km ) Precip ( " mm )
12:53 am 00:53 Clear with Mist and Fog 34 1.1 31 -0.6 89 89 E 5 7 30.1 1019 5 8.0467 N/A
1:53 am 01:53 Mostly Cloudy with Mist and Fog 34 1.1 32 undefined 92 92 ESE 5 7 30.09 1019 5 8.0467 N/A
2:53 am 02:53 Cloudy with Mist and Fog 30 -1.1 29 -1.7 96 96 N N/A 30.09 1019 2.5 4.02335 N/A
3:06 am 03:06 Cloudy with Mist and Fog 30 -1.1 28 -2.2 92 92 N N/A 30.11 1020 3 4.82802 N/A
3:53 am 03:53 Mostly Cloudy with Mist and Fog 30 -1.1 28 -2.2 92 92 N N/A 30.08 1019 3 4.82802 N/A
4:53 am 04:53 Cloudy with Mist and Fog 31 -0.6 29 -1.7 92 92 N N/A 30.08 1019 4 6.43736 N/A
5:53 am 05:53 Cloudy with Mist and Fog 32 undefined 29 -1.7 88 88 N N/A 30.08 1019 4 6.43736 N/A
6:53 am 06:53 Cloudy with Mist and Fog 32 undefined 30 -1.1 92 92 N N/A 30.1 1019 5 8.0467 N/A
7:53 am 07:53 Cloudy with Mist and Fog 33 0.6 31 -0.6 92 92 N N/A 30.1 1019 6 9.65604 N/A
8:53 am 08:53 Cloudy with Mist and Fog 36 2.2 34 1.1 93 93 N N/A 30.1 1019 5 8.0467 N/A
9:53 am 09:53 Cloudy 40 4.4 36 2.2 86 86 E 5 7 30.08 1019 8 12.87472 N/A
10:53 am 10:53 Cloudy 44 6.7 38 3.3 79 79 E 5 7 30.08 1019 10 16.0934 N/A
11:53 am 11:53 Cloudy 48 8.9 39 3.9 71 71 ESE 3 6 30.07 1018 10 16.0934 N/A
12:53 pm 12:53 Mostly Sunny 56 13.3 44 6.7 65 65 E 5 7 30.03 1017 10 16.0934 N/A
1:53 pm 13:53 Mostly Sunny 62 16.7 43 6.1 50 50 W 3 6 30 1016 10 16.0934 N/A
2:53 pm 14:53 Sunny 64 17.8 43 6.1 46 46 SSW 7 11 29.98 1015 10 16.0934 N/A
3:53 pm 15:53 Sunny 64 17.8 43 6.1 46 46 S 8 13 29.96 1015 10 16.0934 N/A
4:53 pm 16:53 Sunny 64 17.8 43 6.1 46 46 SW 5 7 29.97 1015 10 16.0934 N/A
5:53 pm 17:53 Sunny 59 15 42 5.6 54 54 S 5 7 29.97 1015 10 16.0934 N/A
6:53 pm 18:53 Clear 42 5.6 36 2.2 79 79 N N/A 29.98 1015 10 16.0934 N/A
7:53 pm 19:53 Clear 39 3.9 35 1.7 86 86 N N/A 29.98 1015 10 16.0934 N/A
8:53 pm 20:53 Clear 36 2.2 32 undefined 86 86 N N/A 29.99 1016 10 16.0934 N/A
9:53 pm 21:53 Clear 35 1.7 30 -1.1 82 82 N N/A 29.99 1016 10 16.0934 N/A
10:53 pm 22:53 Clear 34 1.1 30 -1.1 85 85 E 3 6 29.98 1015 10 16.0934 N/A
11:53 pm 23:53 Clear 37 2.8 35 1.7 93 93 E 3 6 29.98 1015 10 16.0934 N/A

Powered by AerisWeather